This is the latest recevied weather packets stored in our database for station/object IZ5MMH-4. If no packets are shown the sender has not sent any weather packets the latest 10 day(s).
| Time | Temp. | Humidity | Pressure | Rain* | Wind** | Luminosity | Snow |
|---|---|---|---|---|---|---|---|
| 1777663479 | 20.56° C | 24% | 1025.4 hPa | - | - | - | - |
| 1777662879 | 21.11° C | 24% | 1025.4 hPa | - | - | - | - |
| 1777662278 | 21.11° C | 24% | 1025.4 hPa | - | - | - | - |
| 1777661678 | 21.11° C | 24% | 1025.3 hPa | - | - | - | - |
| 1777661078 | 21.67° C | 24% | 1025 hPa | - | - | - | - |
| 1777660479 | 21.67° C | 24% | 1025 hPa | - | - | - | - |
| 1777659878 | 21.67° C | 24% | 1024.9 hPa | - | - | - | - |
| 1777659279 | 22.22° C | 24% | 1024.7 hPa | - | - | - | - |
| 1777658679 | 22.78° C | 23% | 1024.6 hPa | - | - | - | - |
| 1777658079 | 22.78° C | 22% | 1024.4 hPa | - | - | - | - |
| 1777657478 | 23.33° C | 22% | 1024.3 hPa | - | - | - | - |
| 1777656878 | 23.33° C | 22% | 1024.2 hPa | - | - | - | - |
| 1777656279 | 23.89° C | 22% | 1024.2 hPa | - | - | - | - |
| 1777655678 | 24.44° C | 21% | 1024 hPa | - | - | - | - |
| 1777655078 | 24.44° C | 21% | 1024.1 hPa | - | - | - | - |
| 1777654479 | 25° C | 21% | 1024.1 hPa | - | - | - | - |
| 1777653879 | 25° C | 22% | 1023.9 hPa | - | - | - | - |
| 1777653279 | 25.56° C | 22% | 1023.9 hPa | - | - | - | - |
| 1777652679 | 25.56° C | 22% | 1023.7 hPa | - | - | - | - |
| 1777652079 | 26.67° C | 22% | 1023.7 hPa | - | - | - | - |
| 1777651479 | 27.22° C | 22% | 1023.8 hPa | - | - | - | - |
| 1777650879 | 27.22° C | 21% | 1023.9 hPa | - | - | - | - |
| 1777650278 | 26.67° C | 21% | 1023.9 hPa | - | - | - | - |
| 1777649679 | 26.67° C | 22% | 1023.9 hPa | - | - | - | - |
| 1777649079 | 26.67° C | 21% | 1023.8 hPa | - | - | - | - |
* Rain since midnight (hover to see other rain measurements)
** Current wind speed in m/s (hover to see current wind gust speed)